This is the latest recevied weather packets stored in our database for station/object NC4M. If no packets are shown the sender has not sent any weather packets the latest 10 day(s).
| Time | Temp. | Humidity | Pressure | Rain* | Wind** | Luminosity | Snow |
|---|---|---|---|---|---|---|---|
| 1778008753 | 10° C | 78% | 1010.5 hPa | 0 mm | - | 80 W/m² | - |
| 1778008452 | 10° C | 77% | 1010.6 hPa | 0 mm | - | 89 W/m² | - |
| 1778008148 | 10° C | 76% | 1010.6 hPa | 0 mm | - | 65 W/m² | - |
| 1778007844 | 10° C | 77% | 1010.9 hPa | 0 mm | - | 58 W/m² | - |
| 1778007539 | 10° C | 78% | 1010.7 hPa | 0 mm | - | 64 W/m² | - |
| 1778007236 | 10° C | 79% | 1010.6 hPa | 0 mm | - | 65 W/m² | - |
| 1778006932 | 10° C | 78% | 1010.3 hPa | 0 mm | - | 83 W/m² | - |
| 1778006629 | 10.56° C | 80% | 1010.4 hPa | 0 mm | - | 89 W/m² | - |
| 1778006326 | 10.56° C | 82% | 1010.6 hPa | 0 mm | - | 76 W/m² | - |
| 1778006023 | 10.56° C | 83% | 1010.7 hPa | 0 mm | - | 54 W/m² | - |
| 1778005720 | 10.56° C | 82% | 1011 hPa | 0 mm | - | 53 W/m² | - |
| 1778005417 | 10.56° C | 82% | 1010.6 hPa | 0 mm | - | 51 W/m² | - |
| 1778005114 | 10.56° C | 83% | 1010.6 hPa | 0 mm | - | 54 W/m² | - |
| 1778004811 | 10.56° C | 79% | 1010.4 hPa | 0 mm | - | 69 W/m² | - |
| 1778004507 | 10.56° C | 80% | 1010.4 hPa | 0 mm | - | 81 W/m² | - |
| 1778004204 | 10.56° C | 82% | 1009.9 hPa | 0 mm | - | 100 W/m² | - |
| 1778003900 | 10.56° C | 81% | 1009.7 hPa | 0 mm | - | 130 W/m² | - |
| 1778003597 | 11.11° C | 81% | 1009.7 hPa | 0 mm | - | 130 W/m² | - |
| 1778003293 | 11.11° C | 81% | 1009.8 hPa | 0 mm | - | 149 W/m² | - |
| 1778002991 | 11.11° C | 80% | 1009.8 hPa | 0 mm | - | 138 W/m² | - |
| 1778002686 | 11.11° C | 81% | 1009.9 hPa | 1.27 mm | - | 155 W/m² | - |
| 1778002383 | 11.11° C | 76% | 1009.8 hPa | 0 mm | - | 222 W/m² | - |
| 1778002080 | 11.11° C | 76% | 1010.2 hPa | 0 mm | - | 175 W/m² | - |
| 1778001777 | 11.11° C | 76% | 1010.2 hPa | 0 mm | - | 100 W/m² | - |
| 1778001472 | 11.11° C | 76% | 1010.6 hPa | 0 mm | - | 59 W/m² | - |
* Rain latest hour (hover to see other rain measurements)
** Current wind speed in m/s (hover to see current wind gust speed)